Weather Roundup
Issued by NWS Springfield, MO

Home | Current Version | Previous Version | Text Only | Print | Product List | Glossary On
Versions: 1 2 3 4 5 6 7 8 9 10 11 12 13 14 15 16 17 18 19 20 21 22 23 24 25 26 27 28 29 30 31 32 33 34 35 36 37 38 39 40 41 42 43 44 45 46 47 48 49 50
000
NZUS99 KSGF 091307
HRRSGF

HOURLY WEATHER
NATIONAL WEATHER SERVICE SPRINGFIELD MO
700 AM CST FRI DEC 09 2016

......SGF CWA......

CITY           SKY/WX    TMP DP  RH WIND       PRES   REMARKS
SPRINGFIELD    CLOUDY    11   8  88 NW3       30.61S
JOPLIN         CLOUDY    14  11  87 CALM      30.66S
WEST PLAINS    CLEAR     12   8  84 SW3       30.62R
ROLLA          CLEAR     12   9  87 NW6       30.59F WCI   3
OSAGE BEACH    CLEAR     12   7  80 CALM      30.66S
BRANSON        PTCLDY    14  10  85 CALM      30.64R

......SURROUNDING SGF CWA......

CITY           SKY/WX    TMP DP  RH WIND       PRES   REMARKS
CHANUTE        CLOUDY    13   9  84 CALM      30.65S
PARSONS        CLOUDY    10   7  87 CALM      30.67S
COFFEYVILLE    CLOUDY    13  10  88 CALM      30.68S
EMPORIA        CLOUDY    15  11  83 S3        30.62S
GROVE OK       CLEAR     14  12  92 CALM      30.69S
ROGERS AR      CLOUDY    14  10  84 CALM      30.63S
SILOAM SPRINGS CLOUDY    14  10  85 CALM      30.63S
HARRISON AR    CLOUDY    15  11  83 W3        30.63R
NEAR YELLVILLE CLEAR     18  10  73 CALM      30.64R

......KANSAS AND MISSOURI......

CITY           SKY/WX    TMP DP  RH WIND       PRES   REMARKS
KANSAS CTY INT PTCLDY    12   6  77 NE5       30.63S WCI   4
DOWNTOWN KC    CLEAR     16   8  71 NE5       30.66S WCI   9
COLUMBIA       CLEAR     13   8  81 W6        30.63S WCI   4
SEDALIA        CLEAR     14   8  77 NW5       30.66S WCI   6
ST JOSEPH      CLEAR      7   4  87 CALM      30.65F
ST LOUIS       CLEAR     17   9  70 W7        30.63R WCI   8
SPIRIT OF STL  CLEAR     15  11  83 W5        30.65R WCI   8
KIRKSVILLE     CLEAR      8   5  87 W5        30.61F WCI   0
WICHITA        CLOUDY    17  12  80 SE6       30.58F WCI   9
TOPEKA         CLOUDY    14   9  80 CALM      30.65S
OLATHE         CLOUDY    12   9  87 CALM      30.63S

......TENNESSEE......

CITY           SKY/WX    TMP DP  RH WIND       PRES   REMARKS
MEMPHIS        PTCLDY    23  15  71 N5        30.64S WCI  17
NASHVILLE      CLOUDY    26  14  60 N8        30.59R WCI  18

......ARKANSAS.......

CITY           SKY/WX    TMP DP  RH WIND       PRES   REMARKS
FAYETTEVILLE   CLOUDY    11   9  92 CALM      30.64R
FT SMITH       PTCLDY    18  14  84 CALM      30.69S
LITTLE ROCK    CLEAR     20  16  84 N7        30.70R WCI  11

......OKLAHOMA.......

CITY           SKY/WX    TMP DP  RH WIND       PRES   REMARKS
TULSA          PTCLDY    15  11  83 N3        30.68S
PONCA CITY     CLOUDY    12   7  80 CALM      30.64S
MCALESTER      CLOUDY    17  13  84 CALM      30.67S
OKLAHOMA CITY  CLOUDY    23  11  60 E8        30.61F WCI  14

......IOWA............

CITY           SKY/WX    TMP DP  RH WIND       PRES   REMARKS
DES MOINES     NOT AVBL
QUAD CITIES    CLOUDY    19  10  68 NW10      30.57S WCI   7

......ILLINOIS........

CITY           SKY/WX    TMP DP  RH WIND       PRES   REMARKS
QUINCY         CLOUDY    17  12  80 W6        30.60S WCI   9
CHICAGO        FLURRIES  23  17  78 W10       30.48R WCI  12




USA.gov is the U.S. government's official web portal to all federal, state and local government web resources and services.